This is the latest recevied weather packets stored in our database for station/object EA3IK-1. If no packets are shown the sender has not sent any weather packets the latest 10 day(s).
| Time | Temp. | Humidity | Pressure | Rain* | Wind** | Luminosity | Snow |
|---|---|---|---|---|---|---|---|
| 1777478906 | 21.67° C | 53% | 1011.4 hPa | 0 mm | - | - | - |
| 1777478006 | 21.67° C | 54% | 1011.2 hPa | 0 mm | - | - | - |
| 1777477105 | 22.22° C | 54% | 1011.4 hPa | 0 mm | - | - | - |
| 1777476204 | 21.67° C | 53% | 1011.5 hPa | 0 mm | - | - | - |
| 1777475303 | 21.67° C | 54% | 1011.4 hPa | 0 mm | - | - | - |
| 1777472600 | 21.67° C | 52% | 1011.5 hPa | 0 mm | - | - | - |
| 1777471700 | 21.11° C | 54% | 1011.6 hPa | 0 mm | - | - | - |
| 1777470799 | 21.67° C | 52% | 1011.7 hPa | 0 mm | - | - | - |
| 1777469898 | 21.11° C | 63% | 1011.7 hPa | 0 mm | - | - | - |
| 1777468997 | 21.11° C | 62% | 1012.1 hPa | 0 mm | - | - | - |
| 1777468096 | 21.11° C | 66% | 1012.2 hPa | 0 mm | - | - | - |
| 1777466294 | 20.56° C | 66% | 1012.2 hPa | 0 mm | - | - | - |
| 1777465394 | 20.56° C | 67% | 1012.2 hPa | 0 mm | - | - | - |
| 1777464493 | 20.56° C | 63% | 1012.2 hPa | 0 mm | - | - | - |
| 1777462691 | 20° C | 67% | 1012.6 hPa | 0 mm | - | - | - |
| 1777461790 | 20° C | 67% | 1012.5 hPa | 0 mm | - | - | - |
| 1777460889 | 20.56° C | 67% | 1012.6 hPa | 0 mm | - | - | - |
| 1777459989 | 20° C | 66% | 1012.6 hPa | 0 mm | - | - | - |
| 1777459088 | 20° C | 66% | 1012.6 hPa | 0 mm | - | - | - |
| 1777458187 | 20° C | 66% | 1012.5 hPa | 0 mm | - | - | - |
| 1777457286 | 20° C | 66% | 1012.3 hPa | 0 mm | - | - | - |
| 1777455484 | 20° C | 64% | 1012.2 hPa | 0 mm | - | - | - |
| 1777454583 | 19.44° C | 66% | 1012 hPa | 0 mm | - | - | - |
| 1777453682 | 20° C | 66% | 1011.9 hPa | 0 mm | - | - | - |
| 1777452782 | 20° C | 66% | 1011.8 hPa | 0 mm | - | - | - |
* Rain latest hour (hover to see other rain measurements)
** Current wind speed in m/s (hover to see current wind gust speed)